Tracking 30415 objects as of 15-May-2025
HD Live streaming from Space Station
objects crossing your sky now

STARLINK-31620

Track STARLINK-31620 now!
10-day predictions


NORAD ID: 59460
Int'l Code: 2024-068F
Perigee: 489.5 km
Apogee: 490.8 km
Inclination: 43.0 °
Period: 94.3 minutes
Semi major axis: 6861 km
RCS: Unknown
Launch date: April 10, 2024
Source: United States (US)
Launch site: AIR FORCE EASTERN TEST RANGE (AFETR)
Your satellite tracking list
Your tracking list is empty




NASA's NSSDC Master Catalog

Two Line Element Set (TLE):
1 59460U 24068F   25134.42182987 -.00000633  00000-0 -13496-4 0  9991
2 59460  43.0014 281.1647 0000925 274.8288  85.2458 15.27584587 62790
Source of the keplerian elements: AFSPC